RH
42 42 41 40 39 39 40 38 37 38 39 40 40 40 41 42 42 43 43 43 43 42 42 41 39 37 36 35 34 33 34 35 36 37 39 40 40 41 41 40 39 38 37 38 37 38 38 38 38 37 37 36 35 35 37 37 37 38 38 37 37 37 36 37 38 41 43 40 37 37 35 32 29 26 24 23 24 23 23 25 28 32 34 33 33
45 43 41 41 40 41 41 40 38 38 39 40 40 39 41 42 43 44 44 44 44 42 42 42 41 40 39 37 36 35 34 34 34 34 35 36 37 37 37 37 36 35 35 35 35 35 36 37 38 38 37 36 34 34 35 37 38 40 40 40 40 40 40 39 39 39 39 37 35 35 33 30 29 28 27 27 26 25 25 28 31 33 34 33 34
45 45 43 42 40 39 40 40 39 37 38 39 39 39 40 42 44 44 44 44 44 42 41 42 42 42 41 40 40 39 38 36 36 35 34 34 34 34 34 35 35 34 33 33 33 34 36 37 38 39 38 37 35 34 35 36 37 39 41 42 42 43 43 42 42 40 38 37 35 34 33 31 30 30 29 29 28 27 28 30 31 32 33 34 35
44 45 45 44 42 40 40 40 40 38 37 37 38 38 40 43 44 45 44 44 45 43 42 42 43 43 43 42 42 41 40 39 39 38 36 35 34 33 33 34 34 33 32 32 33 35 36 37 38 39 39 37 35 35 36 38 38 39 40 40 40 40 41 41 41 40 39 37 33 32 32 31 31 31 31 30 30 29 29 29 30 31 33 34 35
44 44 45 45 45 44 43 43 43 41 39 39 39 39 41 43 44 44 44 45 45 45 44 44 44 44 44 44 44 43 42 41 40 40 39 38 36 35 34 33 33 33 33 33 34 35 37 37 38 39 40 39 37 38 39 40 40 39 38 37 36 37 38 38 39 39 38 37 35 32 32 31 32 31 31 32 32 31 32 31 31 30 30 31 33
45 44 43 44 45 45 46 46 46 44 42 42 41 41 42 43 44 44 44 44 45 46 46 46 46 46 46 46 46 44 44 43 42 42 41 41 39 38 37 37 37 37 36 37 37 38 39 39 38 39 41 41 40 40 40 39 39 39 38 36 36 36 36 37 37 37 37 36 35 34 34 34 34 33 32 33 34 35 36 36 34 31 29 28 30
45 44 43 42 42 43 45 47 48 48 46 45 44 43 42 42 42 42 43 45 46 47 47 47 47 47 47 48 48 47 46 46 45 44 43 43 41 40 40 40 42 42 42 42 41 41 41 40 40 40 41 43 43 42 42 41 41 41 40 39 39 38 39 39 39 40 38 37 37 38 37 38 39 38 36 34 35 37 38 38 36 34 32 31 31
48 47 45 43 41 39 40 43 44 46 46 45 45 44 43 42 41 41 42 44 46 47 47 48 48 48 48 48 48 49 49 49 48 47 45 44 41 40 41 43 45 46 46 46 44 43 42 42 42 42 42 43 45 45 45 45 45 45 44 44 43 43 42 42 42 42 41 40 40 40 40 40 42 43 41 39 40 42 40 39 37 36 35 36 36
50 50 48 47 44 41 39 39 40 41 41 42 42 43 43 43 42 41 41 43 45 46 47 48 49 50 49 48 48 48 49 49 49 48 48 46 45 44 44 46 47 47 47 46 45 43 42 43 45 45 45 45 46 47 48 48 48 48 48 48 47 46 45 44 44 43 42 41 41 41 42 43 46 47 46 45 44 43 41 40 38 36 36 37 39
52 51 51 49 48 45 41 38 38 38 38 39 39 41 42 42 43 43 43 43 45 46 48 49 50 51 51 50 49 49 49 49 48 48 48 48 48 48 48 49 48 47 46 45 45 44 44 45 46 46 47 47 48 47 48 50 51 52 53 52 51 50 49 48 47 46 46 45 43 43 44 45 46 47 46 44 43 42 41 39 39 38 37 38 43
53 52 52 51 50 48 46 42 40 38 37 37 38 39 40 40 40 42 43 44 45 46 48 49 50 52 54 54 53 52 51 50 50 49 49 49 48 48 49 49 48 48 46 44 44 44 46 47 48 49 50 50 50 50 50 50 52 53 54 54 53 53 52 52 51 50 50 49 47 45 43 42 39 38 38 38 38 39 39 39 38 38 39 42 49
54 52 53 53 51 51 49 48 45 41 38 37 37 37 38 39 39 40 41 43 44 46 47 49 51 52 54 55 56 54 53 52 51 51 50 50 51 52 53 53 53 53 51 52 52 51 51 52 53 54 54 53 53 53 53 54 55 55 56 55 55 55 54 52 51 50 49 48 46 44 42 39 36 34 33 33 33 34 35 37 38 39 41 45 51
57 55 55 54 53 53 53 51 50 48 44 40 38 38 38 38 39 41 41 43 45 46 48 50 51 51 53 55 56 56 57 55 55 54 54 53 55 58 59 60 59 58 57 60 62 59 57 57 58 59 59 57 56 57 57 57 57 57 57 57 56 54 53 51 49 48 47 44 43 42 41 39 35 34 32 31 31 34 36 39 40 42 45 47 49
62 60 58 57 55 53 53 53 53 53 50 46 42 40 39 39 40 40 42 44 45 46 48 50 51 52 53 54 54 56 58 57 55 56 56 56 57 58 58 59 60 60 60 62 64 61 59 58 59 60 60 59 59 59 59 59 58 57 57 57 56 54 51 50 48 47 45 42 42 42 42 40 39 39 39 38 39 40 41 43 46 48 51 53 53
67 66 64 60 56 55 54 54 54 56 56 54 50 45 42 42 42 42 43 45 46 46 48 49 51 51 51 52 52 52 53 52 51 52 53 53 54 54 54 57 60 61 61 62 63 62 60 58 58 59 58 57 56 56 57 56 56 55 56 56 55 53 51 50 48 47 45 44 43 43 45 46 49 53 55 55 56 54 49 49 51 53 57 58 55
70 72 71 65 62 61 60 58 57 57 60 59 55 51 47 46 46 46 46 47 47 48 48 48 48 48 48 49 50 49 48 46 46 48 48 49 49 49 49 52 55 55 55 56 57 58 58 57 56 55 52 50 49 49 50 50 51 52 53 53 53 53 54 55 55 54 54 53 51 51 53 55 58 61 64 65 68 67 60 54 54 55 57 53 48
71 73 72 71 70 70 67 65 62 62 65 64 60 56 53 52 51 49 51 52 50 48 49 48 47 46 45 45 45 46 44 43 42 43 44 44 45 45 46 48 49 49 50 51 51 51 51 51 50 49 46 44 44 44 44 45 48 50 51 53 55 58 59 60 60 61 62 62 62 63 66 69 70 71 72 75 77 77 71 62 55 49 45 42 41
73 74 74 76 77 77 77 75 71 70 75 75 70 65 62 62 60 56 57 62 60 53 49 48 48 47 45 45 45 45 44 42 42 41 41 41 41 42 44 46 47 48 48 48 48 47 46 46 46 45 45 44 44 43 43 43 45 47 51 55 60 64 65 64 65 68 69 70 72 74 76 78 81 82 83 83 84 84 78 64 48 37 35 38 41
78 79 78 77 76 76 80 82 78 75 79 80 77 74 73 72 71 67 67 72 74 67 56 50 50 50 49 49 51 49 46 43 42 41 40 39 39 39 39 42 44 46 46 47 47 46 45 45 45 45 44 43 43 45 45 47 50 53 57 62 67 71 72 72 72 74 75 78 80 83 84 85 88 90 89 87 85 84 75 59 44 36 38 44 45
86 86 85 81 79 80 84 87 83 82 85 86 81 79 79 79 77 76 75 76 82 82 71 60 60 61 59 60 62 61 57 53 51 51 50 48 46 42 40 40 42 44 45 46 46 45 44 44 44 44 43 43 45 48 51 54 59 65 69 72 75 78 79 79 79 79 81 84 84 84 87 91 94 94 92 88 82 75 66 55 48 45 47 49 48
90 90 90 88 86 86 87 87 86 87 92 91 86 82 83 83 82 82 81 79 82 87 84 76 74 74 73 72 73 72 71 70 71 70 70 69 65 59 53 49 48 48 49 49 49 48 48 48 51 53 54 54 55 57 59 61 66 71 76 77 79 80 81 84 87 88 89 89 87 85 88 93 95 94 90 82 72 63 58 55 53 52 52 50 46
92 92 92 91 89 88 89 88 89 91 93 91 89 88 88 87 87 86 85 84 85 87 87 84 83 83 83 82 80 79 79 80 82 83 84 84 83 79 72 66 63 62 62 63 63 61 59 59 61 64 68 69 68 69 72 75 77 80 84 87 88 87 86 88 91 93 95 94 90 87 89 93 94 90 81 70 61 56 55 55 54 52 49 44 38
93 95 95 93 92 92 92 91 91 91 90 88 89 91 91 89 89 88 88 89 89 89 88 88 87 87 87 86 86 87 86 85 86 89 90 90 90 89 86 82 80 80 79 77 76 75 72 70 68 68 70 71 70 69 73 77 78 80 84 88 91 91 90 92 94 95 96 92 87 85 89 90 85 78 69 62 58 57 55 53 51 47 43 40 36
89 91 91 91 92 92 92 92 90 89 88 87 88 90 90 90 90 90 90 90 91 92 93 92 90 90 90 89 89 90 89 86 86 88 90 91 93 94 92 90 88 89 90 87 84 82 81 80 78 77 77 78 76 75 75 75 76 80 85 88 90 90 89 90 91 89 87 87 87 87 87 82 74 67 63 61 60 57 54 50 46 42 39 39 38
84 84 84 85 87 89 92 92 91 89 88 86 85 86 86 86 85 86 85 86 88 91 92 91 90 90 90 90 88 87 84 82 84 87 89 90 92 91 90 89 87 87 88 87 85 85 86 87 88 87 85 85 84 84 82 80 80 83 87 89 87 85 84 85 88 88 88 89 89 85 78 72 66 63 62 61 58 54 50 47 45 42 41 41 40
79 77 77 77 77 78 81 83 84 83 82 80 79 78 79 81 82 80 79 80 83 86 88 89 89 88 85 83 83 83 82 83 86 89 88 88 87 85 84 83 82 82 81 80 80 82 83 83 84 84 82 82 82 83 84 85 85 84 84 85 86 85 87 90 92 92 90 86 79 73 68 65 64 62 59 55 51 46 43 43 44 43 42 41 40
75 74 73 71 68 67 69 73 76 77 77 77 77 77 79 81 81 80 78 78 79 81 82 82 83 81 80 80 81 83 86 89 90 89 86 84 81 80 81 81 78 75 73 71 70 72 72 72 74 77 78 79 81 82 84 87 90 88 87 89 91 91 91 91 89 86 82 77 70 65 63 61 58 55 51 47 44 43 43 44 45 43 40 37 37
71 71 70 68 68 68 69 71 73 73 74 76 76 77 77 78 78 77 77 75 76 78 79 82 82 80 80 81 81 82 85 88 87 84 84 83 80 79 81 81 76 68 64 62 62 62 62 63 65 69 73 76 79 81 84 88 91 90 90 90 88 83 81 80 76 72 68 64 60 57 54 52 49 46 45 44 44 45 47 46 46 45 41 37 35
68 68 67 66 67 70 71 70 70 70 70 71 71 70 71 72 73 74 75 74 74 74 77 82 84 83 83 84 85 85 86 86 83 79 78 80 80 79 76 73 69 65 62 61 59 57 58 60 61 62 65 69 73 77 82 88 90 90 89 84 77 70 67 65 62 59 55 53 51 48 45 43 43 42 43 43 43 44 44 44 43 42 40 38 36
58 61 63 62 63 65 66 66 67 67 67 68 67 67 69 70 72 73 73 73 73 73 74 77 80 81 82 84 84 83 81 80 78 75 71 70 71 72 71 68 66 65 63 61 60 61 62 64 65 65 65 65 65 66 69 73 76 77 75 71 65 60 58 55 52 50 49 47 46 44 42 41 41 43 44 44 44 43 43 43 41 40 39 38 38
45 49 52 54 55 56 56 56 56 56 57 58 59 60 62 63 65 65 64 63 63 64 66 69 69 70 72 74 73 72 70 67 64 62 58 55 55 57 58 59 59 60 61 61 65 69 72 70 68 67 66 64 62 61 60 60 60 60 58 55 54 53 52 50 47 45 44 43 43 42 42 42 43 45 46 47 47 48 47 46 45 44 42 41 40
40 42 45 48 50 51 50 49 49 48 47 49 49 50 51 53 52 52 51 50 50 50 52 52 52 52 53 55 56 57 57 54 51 48 47 45 44 42 42 44 46 50 53 57 62 69 73 73 72 71 70 68 65 63 62 60 59 58 56 53 52 51 50 50 49 46 44 43 43 42 43 44 46 47 48 49 50 50 50 50 49 48 46 45 43
41 40 41 44 46 47 47 47 46 45 44 45 45 45 45 44 43 43 42 41 41 41 42 42 41 42 42 43 44 46 47 46 46 46 44 43 43 42 41 42 42 44 49 55 62 66 68 68 69 68 68 68 66 64 64 64 63 64 64 63 61 59 57 56 55 53 51 49 48 48 49 50 51 52 54 55 55 55 56 56 55 54 52 51 49
41 39 39 39 41 43 45 46 45 44 45 45 45 45 44 43 42 42 42 40 39 39 39 39 40 40 41 42 43 44 46 46 47 47 47 47 47 48 48 49 49 48 52 58 63 64 64 64 64 64 64 64 64 64 64 63 64 65 65 65 65 64 64 64 64 64 64 63 61 59 56 55 55 57 59 60 61 61 61 60 60 58 56 54 52
39 38 37 36 36 37 39 42 44 45 46 46 47 47 47 46 46 47 46 46 44 44 44 44 45 45 46 47 47 48 49 50 50 50 51 52 53 53 54 56 58 59 60 61 61 61 61 61 61 60 60 60 60 61 61 61 61 61 61 62 63 63 65 67 69 70 71 71 69 66 63 61 61 62 64 64 65 64 64 62 61 59 56 54 52
37 36 35 35 34 34 35 37 40 42 44 46 47 47 47 48 48 49 49 49 49 49 49 50 50 51 52 52 53 53 52 52 52 52 52 53 55 56 55 56 57 59 60 62 62 61 60 60 60 59 59 60 60 61 61 60 59 59 59 60 61 61 61 63 66 68 69 70 71 72 72 72 71 71 71 71 70 69 67 65 62 57 53 51 49
34 33 33 34 34 34 34 35 37 39 41 43 44 45 45 46 46 46 47 47 47 48 49 49 51 52 54 54 54 54 54 54 54 53 53 54 55 56 56 54 54 55 56 57 57 58 58 59 59 59 59 60 60 61 61 62 63 64 65 66 67 67 67 67 67 68 68 68 69 71 72 73 72 72 72 71 71 70 69 66 61 57 55 53 52
28 28 28 28 29 31 32 33 35 37 39 39 40 41 42 44 45 46 47 47 47 47 48 48 49 50 52 52 53 54 54 54 55 55 55 56 56 57 57 56 55 55 54 54 55 56 57 57 58 59 59 60 60 61 61 63 64 65 68 72 75 75 75 74 74 73 72 72 71 71 70 70 68 68 68 70 71 71 70 67 63 61 61 60 59
20 21 21 21 23 25 28 31 34 35 36 36 36 36 36 38 40 42 45 46 47 47 48 48 48 49 50 50 51 52 53 53 54 55 55 56 56 56 55 54 54 54 54 55 54 55 56 57 58 59 60 60 60 60 61 62 63 63 65 68 72 74 74 74 74 73 72 71 70 70 70 70 69 68 69 69 69 68 65 63 61 60 60 60 60
18 17 16 17 17 19 23 28 31 32 33 35 35 33 33 34 35 36 38 40 42 42 43 44 45 47 47 49 50 52 52 53 53 53 53 53 53 52 50 48 48 48 49 49 49 49 50 51 52 53 55 55 55 55 56 56 57 57 56 57 60 63 65 65 66 66 65 65 65 65 65 65 65 65 64 63 62 60 58 57 56 56 56 56 57
21 18 17 16 17 18 20 23 24 25 27 30 30 29 29 31 32 35 37 39 40 40 40 41 42 42 43 45 47 50 51 52 52 52 53 53 54 53 49 46 45 46 46 45 45 44 44 44 45 46 48 49 49 48 49 50 50 49 49 50 50 51 53 55 56 57 59 60 61 62 64 64 64 64 62 60 58 57 56 55 54 56 57 57 58
27 24 22 20 19 20 21 23 23 23 24 26 28 28 28 29 32 34 37 40 42 42 41 42 42 42 42 43 45 47 49 50 51 52 53 53 54 52 48 44 44 45 46 45 45 44 44 43 42 43 44 45 46 47 48 48 48 48 47 47 47 47 48 51 50 49 49 51 54 57 61 63 65 65 63 59 57 56 56 55 55 57 59 60 61
32 30 29 27 25 24 24 25 25 26 26 26 27 28 29 30 31 34 37 40 42 43 43 43 43 43 43 44 45 46 47 49 51 53 54 54 53 50 47 45 45 47 47 48 47 46 44 42 41 41 41 42 43 44 45 45 45 45 45 44 44 44 46 48 48 46 46 47 50 53 56 59 60 61 60 58 56 55 55 55 56 56 56 56 56
31 32 32 32 32 31 30 29 29 28 28 28 29 29 31 32 33 35 37 38 39 41 43 44 45 44 44 44 44 44 45 47 49 51 53 53 51 49 48 48 49 48 47 46 44 42 41 41 40 40 40 40 40 42 43 43 43 42 42 42 44 45 46 47 47 47 48 49 51 54 56 57 58 57 57 57 55 53 51 51 51 49 48 47 47
28 30 30 31 32 32 32 31 30 29 29 28 29 29 31 32 33 34 35 36 36 37 39 43 46 47 47 46 45 44 45 47 49 50 50 49 48 47 47 47 46 45 43 43 42 42 42 42 43 43 43 43 43 43 45 46 45 45 45 47 49 50 50 50 51 51 52 53 54 56 57 57 57 56 55 54 53 50 48 46 45 44 43 42 42
23 23 24 25 26 27 27 27 26 25 26 25 25 25 26 28 29 31 32 35 37 38 40 42 44 45 46 47 47 47 48 49 51 53 53 50 49 49 49 49 49 50 50 50 48 46 44 44 45 46 46 45 46 47 49 52 54 55 54 53 53 52 52 53 54 54 55 56 56 56 55 55 54 53 51 50 48 46 43 42 41 41 41 40 40
21 20 20 21 21 22 22 22 21 21 21 21 21 21 22 23 25 27 30 32 35 37 38 38 39 41 44 46 47 47 49 51 53 54 54 53 52 53 55 55 56 54 50 46 44 44 43 43 43 43 42 43 46 51 53 57 61 62 60 56 55 54 53 52 54 54 55 56 55 53 52 51 50 50 49 48 46 43 42 42 43 43 43 43 43
24 23 22 22 21 21 21 20 19 19 19 19 19 19 20 21 23 25 27 29 31 32 33 33 33 37 42 46 46 47 50 52 53 52 52 52 53 53 53 52 50 46 43 41 41 43 43 42 41 40 39 41 45 52 57 61 64 63 59 57 55 52 49 50 51 52 54 55 55 54 52 51 50 50 49 49 47 46 46 46 47 47 46 46 47
26 25 24 23 23 22 21 21 21 21 20 20 20 21 20 21 23 25 27 29 30 30 31 31 31 33 38 42 44 46 49 52 52 52 52 52 51 50 48 46 44 43 43 43 43 42 41 40 39 40 41 41 43 48 54 57 58 57 55 54 52 50 49 49 50 51 53 54 55 56 55 54 52 51 51 51 50 49 48 48 49 49 49 49 49
25 25 24 24 23 23 23 23 22 23 22 23 23 23 24 25 27 28 30 32 32 32 32 32 33 34 35 38 40 43 46 49 50 51 51 49 48 47 45 43 42 44 44 44 42 41 41 41 41 42 42 42 44 46 48 49 49 50 51 51 50 50 51 52 53 53 53 53 53 54 55 55 54 53 53 52 51 50 50 51 51 51 51 50 48
23 23 23 23 23 23 23 24 24 24 24 24 25 26 27 29 30 31 32 33 34 35 35 35 36 36 36 36 38 42 44 45 45 46 46 46 46 45 44 43 44 44 44 42 41 41 40 42 42 43 43 45 47 48 48 48 49 50 50 51 52 53 52 52 53 53 51 48 47 46 48 49 49 49 49 49 49 48 48 48 48 48 48 48 46